User: anonymous   Login
Location: Caltech
(34.1382°N, 118.1253°W)
Time: 05:10:01
(UTC-08:00)
Language:

RS-15 - Orbit

View from above orbital plane
View from above orbital plane
View from above satellite
View from above satellite

Ground track
Ground track

The orbit data is extracted from the following two-line orbital elements,

1 23439U 94085A   15028.85233284 -.00000033  00000-0  28060-3 0  7622
2 23439 064.8142 186.7971 0149440 038.7755 322.3778 11.27562953827442
Epoch (UTC): 28 January 2015 20:27:21
Eccentricity: 0.0149440
inclination: 64.8142°
perigee height: 1897 km
apogee height: 2148 km
right ascension of ascending node: 186.7971°
argument of perigee: 38.7755°
revolutions per day: 11.27562953
mean anomaly at epoch: 322.3778°
orbit number at epoch: 82744

The dashed part of the orbit path shows where the satellite is in the earth's shadow,  

DLR